period_start,C,m1,H,J0,J1,J2,J3,J4,J5,JA,JB,JC,JD,JJ,JK,JN,#
2015-05-25 00:01:18,0.00,0.01,0.00,23.27,27.24,30.02,4.80,26.40,1018.28,2036.00,3459.64,3324.97,3610.99,350.26,348.20,3.49,0000 0000 0000 0000 000000
2015-05-25 00:06:19,-0.00,0.01,0.00,23.28,27.25,30.02,4.75,26.36,1018.22,2036.00,3459.89,3324.98,3610.99,349.97,347.67,3.52,0000 0000 0000 0000 000000
2015-05-25 00:11:20,0.00,0.01,0.00,23.32,27.25,30.02,4.72,26.27,1018.16,2036.00,3459.93,3324.97,3610.99,349.32,347.32,3.55,0000 0000 0000 0000 000000
2015-05-25 00:16:22,-0.00,0.01,0.00,23.36,27.25,30.02,4.84,26.38,1018.12,2035.99,3459.90,3324.98,3610.98,350.03,347.77,3.58,0000 0000 0000 0000 000000
2015-05-25 00:21:23,0.01,0.01,0.00,23.40,27.25,30.01,4.78,26.32,1018.09,2035.99,3459.59,3324.96,3610.91,350.18,347.89,3.61,0000 0000 0000 0000 000000
2015-05-25 00:26:24,0.00,0.01,0.00,23.43,27.25,30.01,4.78,26.34,1018.08,2035.98,3459.43,3324.93,3610.87,350.30,348.00,3.64,0000 0000 0000 0000 000000
2015-05-25 00:31:25,0.02,0.01,0.00,23.46,27.26,30.00,4.80,26.29,1018.08,2035.99,3459.19,3324.77,3610.58,350.04,347.73,3.67,0000 0000 0000 0000 000000
2015-05-25 00:36:26,-0.02,0.01,0.00,23.47,27.27,29.98,4.82,26.36,1018.08,2035.99,3459.32,3324.88,3610.63,350.25,347.91,3.70,0000 0000 0000 0000 000000
2015-05-25 00:41:28,0.03,0.01,0.00,23.51,27.27,30.00,4.72,26.32,1018.08,2035.98,3459.11,3324.59,3610.37,349.79,347.36,3.73,0000 0000 0000 0000 000000
2015-05-25 00:46:29,-0.00,0.01,0.00,23.55,27.27,30.00,4.80,26.33,1018.08,2035.99,3459.14,3324.81,3610.53,350.14,347.77,3.76,0000 0000 0000 0000 000000
2015-05-25 00:51:30,0.01,0.01,0.00,23.59,27.27,29.99,4.79,26.24,1018.08,2035.99,3459.06,3324.70,3610.39,350.47,348.07,3.79,0000 0000 0000 0000 000000
2015-05-25 00:56:32,0.02,0.01,0.00,23.61,27.28,29.97,4.73,26.38,1018.08,2035.99,3459.01,3324.36,3610.17,350.07,347.42,3.82,0000 0000 0000 0000 000000
2015-05-25 01:01:33,0.00,0.01,0.00,23.64,27.29,29.98,4.79,26.37,1018.08,2035.99,3459.00,3324.04,3610.03,350.43,347.79,3.85,0000 0000 0000 0000 000000
2015-05-25 01:06:34,-0.00,0.01,0.00,23.67,27.30,29.97,4.79,26.37,1018.08,2035.95,3458.97,3324.02,3610.00,349.78,347.36,3.88,0000 0000 0000 0000 000000
2015-05-25 01:11:35,0.00,0.01,0.00,23.70,27.30,29.96,4.73,26.37,1018.08,2035.97,3458.98,3324.02,3610.00,349.75,347.42,3.91,0000 0000 0000 0000 000000
2015-05-25 01:16:37,-0.00,0.01,0.00,23.73,27.30,29.96,4.78,26.29,1018.08,2035.96,3458.96,3324.00,3610.00,350.92,348.33,3.93,0000 0000 0000 0000 000000
2015-05-25 01:21:38,0.01,0.01,0.00,23.77,27.31,29.96,4.75,26.27,1018.08,2035.95,3458.67,3324.00,3609.99,350.19,347.44,3.96,0000 0000 0000 0000 000000
2015-05-25 01:26:39,-0.01,0.01,0.00,23.81,27.32,29.93,4.72,26.22,1018.08,2035.91,3458.55,3324.00,3609.98,349.68,346.70,3.99,0000 0000 0000 0000 000000
2015-05-25 01:31:40,-0.01,0.01,0.00,23.85,27.32,29.92,4.77,26.24,1018.08,2035.80,3458.11,3323.99,3609.93,350.04,347.19,4.02,0000 0000 0000 0000 000000
2015-05-25 01:36:41,0.01,0.01,0.00,23.89,27.32,29.89,4.71,26.23,1018.08,2035.75,3458.08,3323.99,3609.82,350.02,347.04,4.05,0000 0000 0000 0000 000000
2015-05-25 01:41:42,-0.04,0.01,0.00,23.92,27.32,29.88,4.75,26.23,1018.08,2035.43,3458.03,3323.98,3609.58,349.93,347.20,4.08,0000 0000 0000 0000 000000
2015-05-25 01:46:44,0.02,0.01,0.00,23.95,27.34,29.88,4.70,26.19,1018.08,2035.45,3458.02,3323.97,3609.60,349.89,346.92,4.11,0000 0000 0000 0000 000000
2015-05-25 01:51:45,-0.01,0.01,0.00,23.98,27.35,29.90,4.66,26.18,1018.08,2035.49,3458.02,3323.95,3609.46,349.15,346.10,4.14,0000 0000 0000 0000 000000
2015-05-25 01:56:46,0.01,0.01,0.00,24.02,27.35,29.89,4.70,26.26,1018.07,2035.36,3458.01,3323.91,3609.29,349.52,346.66,4.17,0000 0000 0000 0000 000000
2015-05-25 02:01:47,-0.03,0.01,0.00,24.05,27.35,29.89,4.75,26.23,1018.08,2035.17,3458.00,3323.64,3609.07,350.46,347.33,4.20,0000 0000 0000 0000 000000
2015-05-25 02:06:48,-0.00,0.01,0.00,24.08,27.37,29.89,4.72,26.18,1018.07,2035.11,3457.98,3323.59,3609.04,349.85,346.59,4.23,0000 0000 0000 0000 000000
2015-05-25 02:11:49,0.01,0.01,0.00,24.11,27.37,29.89,4.80,26.16,1018.05,2035.07,3457.98,3323.16,3609.01,350.30,347.24,4.26,0000 0000 0000 0000 000000
2015-05-25 02:16:50,-0.00,0.01,0.00,24.15,27.38,29.89,4.72,26.20,1017.97,2035.05,3457.98,3323.14,3609.00,350.13,346.91,4.29,0000 0000 0000 0000 000000
2015-05-25 02:21:51,0.01,0.01,0.00,24.17,27.40,29.89,4.67,26.24,1017.96,2035.07,3457.96,3323.12,3609.01,349.24,346.10,4.31,0000 0000 0000 0000 000000
2015-05-25 02:26:52,-0.00,0.01,0.00,24.20,27.40,29.90,4.78,26.28,1017.95,2035.03,3457.86,3323.02,3609.00,349.80,346.56,4.34,0000 0000 0000 0000 000000
2015-05-25 02:31:54,0.00,0.01,0.00,24.23,27.42,29.91,4.80,26.23,1017.94,2035.01,3457.70,3323.01,3608.99,349.93,346.74,4.37,0000 0000 0000 0000 000000
2015-05-25 02:36:55,-0.00,0.01,0.00,24.26,27.42,29.92,4.75,26.29,1017.94,2035.01,3457.75,3323.00,3608.99,350.02,346.64,4.40,0000 0000 0000 0000 000000
2015-05-25 02:41:56,0.02,0.01,0.00,24.28,27.44,29.92,4.70,26.22,1017.86,2035.01,3457.26,3323.00,3608.95,349.90,346.41,4.43,0000 0000 0000 0000 000000
2015-05-25 02:46:57,0.00,0.01,0.00,24.32,27.45,29.93,4.72,26.19,1017.89,2035.00,3457.11,3323.00,3608.85,350.06,346.75,4.46,0000 0000 0000 0000 000000
2015-05-25 02:51:58,0.01,0.01,0.00,24.35,27.46,29.94,4.80,26.19,1017.87,2035.00,3457.03,3322.99,3608.57,350.09,346.65,4.49,0000 0000 0000 0000 000000
2015-05-25 02:57:00,0.01,0.01,0.00,24.37,27.47,29.94,4.72,26.30,1017.87,2035.00,3457.00,3322.92,3608.20,349.87,346.41,4.52,0000 0000 0000 0000 000000
2015-05-25 03:02:01,0.01,0.01,0.00,24.40,27.49,29.96,4.76,26.31,1017.98,2035.00,3457.00,3322.83,3608.02,349.98,346.44,4.55,0000 0000 0000 0000 000000
2015-05-25 03:07:02,0.01,0.01,0.00,24.42,27.50,29.97,4.73,26.27,1018.02,2035.00,3456.99,3322.66,3608.01,350.04,346.72,4.58,0000 0000 0000 0000 000000
2015-05-25 03:12:04,0.02,0.01,0.00,24.46,27.51,29.98,4.80,26.26,1018.02,2034.99,3456.97,3322.13,3608.00,350.18,346.79,4.61,0000 0000 0000 0000 000000
2015-05-25 03:17:05,0.00,0.02,0.00,24.48,27.52,29.99,4.72,26.26,1018.06,2034.98,3456.95,3322.04,3608.00,349.90,346.38,4.64,0000 0000 0000 0000 000000
2015-05-25 03:22:06,0.00,0.02,0.00,24.50,27.54,30.01,4.78,26.23,1018.06,2034.97,3456.75,3322.00,3607.97,350.08,346.67,4.67,0000 0000 0000 0000 000000
2015-05-25 03:27:07,0.01,0.02,0.00,24.52,27.55,30.03,4.76,26.19,1018.02,2034.94,3456.32,3322.00,3607.95,349.81,346.11,4.70,0000 0000 0000 0000 000000
2015-05-25 03:32:09,0.01,0.02,0.00,24.55,27.56,30.02,4.78,26.25,1018.02,2034.90,3456.08,3322.00,3607.71,350.50,346.71,4.72,0000 0000 0000 0000 000000
2015-05-25 03:37:10,-0.04,0.01,0.00,24.58,27.57,30.03,4.78,26.20,1018.05,2034.61,3456.02,3321.97,3607.16,350.42,346.86,4.75,0000 0000 0000 0000 000000
2015-05-25 03:42:11,-0.00,0.02,0.00,24.61,27.59,30.04,4.65,26.18,1018.05,2034.59,3456.00,3321.96,3607.14,349.90,346.09,4.78,0000 0000 0000 0000 000000
2015-05-25 03:47:12,-0.02,0.01,0.00,24.62,27.60,30.06,4.70,26.19,1018.05,2034.28,3456.00,3321.83,3607.02,349.99,346.35,4.81,0000 0000 0000 0000 000000
2015-05-25 03:52:14,0.01,0.01,0.00,24.65,27.62,30.08,4.75,26.18,1018.04,2034.31,3456.00,3321.76,3607.00,350.00,346.28,4.84,0000 0000 0000 0000 000000
2015-05-25 03:57:15,-0.01,0.01,0.00,24.67,27.62,30.10,4.70,26.23,1018.04,2034.15,3455.99,3321.39,3607.00,349.79,346.01,4.87,0000 0000 0000 0000 000000
2015-05-25 04:02:16,-0.00,0.01,0.00,24.68,27.65,30.11,4.77,26.25,1018.07,2034.04,3455.97,3321.07,3606.99,350.31,346.53,4.90,0000 0000 0000 0000 000000
2015-05-25 04:07:17,0.00,0.01,0.00,24.71,27.66,30.12,4.75,26.18,1018.08,2034.03,3455.95,3321.03,3606.97,350.46,346.67,4.93,0000 0000 0000 0000 000000
2015-05-25 04:12:18,0.00,0.01,0.00,24.73,27.67,30.14,4.71,26.22,1018.08,2034.02,3455.86,3321.00,3606.96,349.83,345.85,4.96,0000 0000 0000 0000 000000
2015-05-25 04:17:19,0.02,0.01,0.00,24.76,27.69,30.14,4.69,26.25,1018.08,2034.01,3455.41,3321.00,3606.64,349.67,345.74,4.99,0000 0000 0000 0000 000000
2015-05-25 04:22:20,0.01,0.01,0.00,24.77,27.70,30.17,4.69,26.15,1018.07,2034.00,3455.05,3321.00,3606.12,349.86,345.80,5.02,0000 0000 0000 0000 000000
2015-05-25 04:27:22,0.00,0.01,0.00,24.80,27.72,30.18,4.78,26.20,1018.08,2034.00,3455.00,3320.96,3606.02,350.16,346.13,5.05,0000 0000 0000 0000 000000
2015-05-25 04:32:23,0.00,0.01,0.00,24.81,27.72,30.19,4.67,26.18,1018.07,2033.99,3455.00,3320.80,3606.00,349.56,345.76,5.08,0000 0000 0000 0000 000000
2015-05-25 04:37:24,0.01,0.02,0.00,24.83,27.75,30.20,4.72,26.16,1018.06,2033.99,3455.00,3320.52,3606.00,349.86,345.99,5.11,0000 0000 0000 0000 000000
2015-05-25 04:42:25,0.01,0.02,0.00,24.86,27.76,30.22,4.81,26.16,1018.03,2033.98,3454.98,3320.17,3605.99,349.90,345.81,5.13,0000 0000 0000 0000 000000
2015-05-25 04:47:27,0.01,0.02,0.00,24.87,27.77,30.23,4.73,26.17,1018.01,2033.99,3454.89,3320.05,3605.97,350.02,345.95,5.16,0000 0000 0000 0000 000000
2015-05-25 04:52:28,0.02,0.02,0.00,24.90,27.79,30.25,4.78,26.15,1018.03,2033.99,3454.38,3320.00,3605.74,349.94,345.92,5.19,0000 0000 0000 0000 000000
2015-05-25 04:57:29,0.01,0.02,0.00,24.91,27.80,30.26,4.78,26.28,1018.06,2033.96,3454.10,3319.99,3605.27,349.85,345.82,5.22,0000 0000 0000 0000 000000
2015-05-25 05:02:30,-0.02,0.02,0.00,24.92,27.82,30.28,4.71,26.16,1018.07,2033.80,3454.01,3319.97,3605.01,350.06,345.90,5.25,0000 0000 0000 0000 000000
2015-05-25 05:07:31,-0.03,0.02,0.00,24.94,27.84,30.30,4.71,26.11,1018.08,2033.67,3454.00,3319.97,3605.00,349.92,345.85,5.28,0000 0000 0000 0000 000000
2015-05-25 05:12:33,-0.03,0.02,0.00,24.95,27.85,30.31,4.69,26.10,1018.08,2033.44,3454.00,3319.89,3605.00,349.61,345.44,5.31,0000 0000 0000 0000 000000
2015-05-25 05:17:34,-0.00,0.01,0.00,24.97,27.87,30.32,4.75,26.16,1018.06,2033.19,3453.97,3319.43,3604.98,350.05,345.85,5.34,0000 0000 0000 0000 000000
2015-05-25 05:22:35,0.00,0.01,0.00,24.94,27.88,30.35,4.74,26.16,1018.02,2033.06,3453.79,3319.09,3604.95,349.75,345.54,5.37,0000 0000 0000 0000 000000
2015-05-25 05:27:36,0.01,0.01,0.00,24.82,27.90,30.42,4.74,26.21,1018.02,2033.06,3453.48,3319.03,3604.92,350.04,345.78,5.40,0000 0000 0000 0000 000000
2015-05-25 05:32:37,0.01,0.02,0.00,24.63,27.90,30.73,4.79,26.27,1018.01,2033.09,3453.12,3319.02,3604.80,350.10,346.33,5.43,0000 0000 0000 0000 000000
2015-05-25 05:37:39,0.00,0.02,0.00,24.48,27.90,30.67,4.80,26.23,1017.92,2033.11,3453.06,3319.03,3604.87,350.25,346.67,5.46,0000 0000 0000 0000 000000
2015-05-25 05:42:40,-0.00,0.02,0.00,24.63,27.90,30.63,4.79,26.37,1017.99,2033.13,3453.19,3319.04,3604.91,349.92,346.31,5.49,0000 0000 0000 0000 000000
2015-05-25 05:47:41,0.00,0.02,0.00,24.72,27.90,30.62,4.85,26.44,1017.89,2033.16,3453.15,3319.03,3604.86,349.83,345.67,5.52,0000 0000 0000 0000 000000
2015-05-25 05:52:43,0.02,0.02,0.00,24.73,27.90,30.57,4.73,26.38,1017.68,2033.27,3453.09,3319.02,3604.83,350.24,346.07,5.54,0000 0000 0000 0000 000000
2015-05-25 05:57:44,0.00,0.02,0.00,24.72,27.90,30.51,4.78,26.47,1017.62,2033.29,3453.09,3319.01,3604.79,350.56,346.42,5.57,0000 0000 0000 0000 000000
2015-05-25 06:02:45,0.05,0.02,0.00,24.70,27.90,30.48,4.67,26.30,1017.62,2033.46,3453.03,3319.02,3604.81,349.58,345.54,5.60,0000 0000 0000 0000 000000
2015-05-25 06:07:46,0.03,0.02,0.00,24.66,27.88,30.47,4.83,26.24,1017.62,2033.73,3453.20,3319.05,3604.89,350.49,346.24,5.63,0000 0000 0000 0000 000000
2015-05-25 06:12:48,0.00,0.02,0.00,24.62,27.87,30.46,4.70,26.23,1017.60,2033.92,3453.37,3319.20,3604.97,349.57,345.82,5.66,0000 0000 0000 0000 000000
2015-05-25 06:17:49,0.01,0.02,0.00,24.60,27.86,30.45,4.69,26.26,1017.59,2033.94,3453.21,3319.17,3604.97,350.05,346.17,5.69,0000 0000 0000 0000 000000
2015-05-25 06:22:50,-0.01,0.02,0.00,24.60,27.85,30.43,4.79,26.27,1017.59,2033.98,3453.32,3319.46,3604.99,349.96,345.90,5.72,0000 0000 0000 0000 000000
2015-05-25 06:27:52,-0.01,0.02,0.00,24.62,27.82,30.37,4.76,26.28,1017.59,2033.98,3453.34,3319.75,3604.99,349.90,345.74,5.75,0000 0000 0000 0000 000000
2015-05-25 06:32:53,-0.01,0.02,0.00,24.64,27.80,30.36,4.76,26.26,1017.59,2033.99,3453.67,3319.92,3604.99,350.18,345.91,5.78,0000 0000 0000 0000 000000
2015-05-25 06:37:55,-0.00,0.02,0.00,24.62,27.79,30.33,4.78,26.31,1017.59,2033.99,3453.75,3319.95,3604.99,350.17,346.17,5.81,0000 0000 0000 0000 000000
2015-05-25 06:42:56,0.00,0.02,0.00,24.52,27.77,30.32,4.74,26.29,1017.59,2033.99,3453.76,3319.98,3605.00,349.81,345.95,5.84,0000 0000 0000 0000 000000
2015-05-25 06:47:57,-0.00,0.02,0.00,24.28,27.75,30.37,4.76,26.32,1017.59,2033.99,3453.84,3319.99,3605.05,349.84,346.48,5.87,0000 0000 0000 0000 000000
2015-05-25 06:52:58,0.00,0.02,0.00,24.15,27.73,30.36,4.74,26.29,1017.59,2033.99,3453.79,3319.99,3605.07,349.91,346.50,5.90,0000 0000 0000 0000 000000
2015-05-25 06:57:59,0.01,0.02,0.00,24.07,27.71,30.37,4.73,26.34,1017.57,2034.00,3453.58,3320.00,3605.14,349.94,346.70,5.93,0000 0000 0000 0000 000000
2015-05-25 07:03:01,-0.02,0.02,0.00,24.00,27.69,30.37,4.71,26.31,1017.56,2034.01,3453.70,3319.99,3605.25,349.79,346.55,5.95,0000 0000 0000 0000 000000
2015-05-25 07:08:02,-0.01,0.02,0.00,23.96,27.67,30.37,4.75,26.31,1017.44,2034.01,3453.95,3320.00,3605.76,349.80,346.73,5.98,0000 0000 0000 0000 000000
2015-05-25 07:13:04,-0.00,0.02,0.00,23.92,27.65,30.34,4.79,26.30,1017.27,2034.03,3453.97,3320.01,3605.95,350.01,346.71,6.01,0000 0000 0000 0000 000000
2015-05-25 07:18:05,0.01,0.02,0.00,23.92,27.64,30.32,4.73,26.29,1017.19,2034.11,3453.98,3320.05,3605.98,349.47,346.36,6.04,0000 0000 0000 0000 000000
2015-05-25 07:23:06,0.01,0.02,0.00,23.92,27.62,30.29,4.74,26.23,1017.20,2034.30,3453.99,3320.29,3605.99,349.92,346.93,6.07,0000 0000 0000 0000 000000
2015-05-25 07:28:07,0.03,0.02,0.00,23.94,27.60,30.29,4.84,26.25,1017.15,2034.39,3453.99,3320.32,3605.99,350.36,346.90,6.10,0000 0000 0000 0000 000000
2015-05-25 07:33:08,0.04,0.02,0.00,23.95,27.60,30.28,4.79,26.22,1017.14,2034.73,3453.98,3320.50,3605.99,349.97,346.64,6.13,0000 0000 0000 0000 000000
2015-05-25 07:38:09,0.01,0.02,0.00,23.96,27.58,30.27,4.77,26.13,1017.16,2034.89,3453.99,3320.81,3605.99,350.40,347.03,6.16,0000 0000 0000 0000 000000
2015-05-25 07:43:10,0.00,0.02,0.00,23.97,27.57,30.26,4.63,26.18,1017.14,2034.97,3453.99,3320.95,3606.00,349.72,346.51,6.19,0000 0000 0000 0000 000000
2015-05-25 07:48:12,-0.00,0.02,0.00,23.99,27.56,30.24,4.73,26.22,1017.14,2034.98,3454.00,3320.98,3606.04,349.65,346.25,6.22,0000 0000 0000 0000 000000
2015-05-25 07:53:13,0.00,0.02,0.00,24.01,27.55,30.23,4.72,26.29,1017.14,2034.98,3454.00,3320.99,3606.04,349.36,346.04,6.25,0000 0000 0000 0000 000000
2015-05-25 07:58:14,0.00,0.02,0.00,24.03,27.55,30.24,4.80,26.34,1017.14,2034.97,3454.00,3320.95,3606.03,349.81,346.54,6.28,0000 0000 0000 0000 000000
2015-05-25 08:03:15,0.00,0.02,0.00,24.05,27.54,30.21,4.83,26.27,1017.18,2034.99,3454.00,3320.97,3606.04,349.98,346.63,6.31,0000 0000 0000 0000 000000
2015-05-25 08:08:17,-0.00,0.02,0.00,24.07,27.52,30.18,4.75,26.19,1017.21,2034.98,3454.00,3320.98,3606.04,350.41,346.92,6.34,0000 0000 0000 0000 000000
2015-05-25 08:13:18,-0.00,0.02,0.00,24.10,27.52,30.18,4.77,26.23,1017.28,2034.99,3454.00,3320.99,3606.09,349.52,346.16,6.36,0000 0000 0000 0000 000000
2015-05-25 08:18:19,-0.01,0.02,0.00,24.12,27.52,30.14,4.79,26.18,1017.16,2034.99,3454.01,3320.99,3606.48,350.31,346.84,6.39,0000 0000 0000 0000 000000
2015-05-25 08:23:20,0.00,0.02,0.00,24.14,27.52,30.12,4.67,26.26,1017.12,2034.99,3454.03,3320.99,3606.72,349.85,346.32,6.42,0000 0000 0000 0000 000000
2015-05-25 08:28:21,0.00,0.02,0.00,24.16,27.52,30.10,4.75,26.23,1017.11,2034.99,3454.02,3320.99,3606.71,350.05,346.69,6.45,0000 0000 0000 0000 000000
2015-05-25 08:33:23,0.01,0.02,0.00,24.17,27.52,30.07,4.75,26.24,1017.12,2034.99,3454.01,3320.99,3606.44,349.96,346.39,6.48,0000 0000 0000 0000 000000
2015-05-25 08:38:24,0.00,0.02,0.00,24.19,27.52,30.06,4.77,26.18,1017.12,2034.99,3454.00,3320.98,3606.17,350.08,346.36,6.51,0000 0000 0000 0000 000000
2015-05-25 08:43:25,0.00,0.02,0.00,24.21,27.52,30.06,4.82,26.20,1017.12,2034.99,3454.00,3320.99,3606.07,349.81,346.49,6.54,0000 0000 0000 0000 000000
2015-05-25 08:48:26,0.00,0.02,0.00,24.22,27.52,30.05,4.75,26.17,1017.13,2035.00,3454.00,3320.99,3606.12,350.23,346.50,6.57,0000 0000 0000 0000 000000
2015-05-25 08:53:27,0.00,0.02,0.00,24.23,27.52,30.05,4.72,26.18,1017.15,2035.00,3454.00,3320.98,3606.08,349.39,345.86,6.60,0000 0000 0000 0000 000000
2015-05-25 08:58:28,0.00,0.02,0.00,24.25,27.52,30.05,4.71,26.29,1017.14,2035.00,3453.98,3320.97,3606.03,349.89,346.32,6.63,0000 0000 0000 0000 000000
2015-05-25 09:03:29,0.00,0.02,0.00,24.25,27.52,30.05,4.69,26.21,1017.17,2035.00,3453.99,3320.97,3606.04,349.91,346.39,6.66,0000 0000 0000 0000 000000
2015-05-25 09:08:30,0.00,0.02,0.00,24.27,27.52,30.05,4.67,26.14,1017.14,2035.00,3453.97,3320.97,3606.03,349.65,345.95,6.69,0000 0000 0000 0000 000000
2015-05-25 09:13:31,0.00,0.02,0.00,24.27,27.53,30.06,4.78,26.21,1017.13,2035.00,3453.96,3320.96,3606.01,350.13,346.44,6.72,0000 0000 0000 0000 000000
2015-05-25 09:18:33,-0.00,0.02,0.00,24.29,27.55,30.07,4.77,26.20,1017.12,2035.00,3453.90,3320.93,3606.01,350.44,346.79,6.75,0000 0000 0000 0000 000000
2015-05-25 09:23:33,0.03,0.02,0.00,24.30,27.55,30.08,4.73,26.25,1017.12,2035.00,3453.42,3320.63,3606.00,349.81,346.16,6.78,0000 0000 0000 0000 000000
2015-05-25 09:28:35,0.01,0.02,0.00,24.30,27.55,30.07,4.75,26.24,1017.12,2035.00,3453.14,3320.36,3606.00,350.05,346.49,6.80,0000 0000 0000 0000 000000
2015-05-25 09:33:36,0.00,0.02,0.00,24.32,27.55,30.09,4.70,26.26,1017.12,2035.00,3453.14,3320.30,3606.00,350.21,346.60,6.83,0000 0000 0000 0000 000000
2015-05-25 09:38:37,0.00,0.02,0.00,24.32,27.55,30.10,4.76,26.30,1017.11,2035.00,3453.10,3320.18,3605.98,350.30,346.50,6.86,0000 0000 0000 0000 000000
2015-05-25 09:43:38,0.01,0.02,0.00,24.32,27.57,30.10,4.78,26.18,1017.11,2035.00,3453.03,3320.09,3605.96,350.09,346.31,6.89,0000 0000 0000 0000 000000
2015-05-25 09:48:39,0.00,0.02,0.00,24.32,27.57,30.10,4.78,26.19,1017.12,2035.00,3453.00,3320.04,3605.95,350.50,346.80,6.92,0000 0000 0000 0000 000000
2015-05-25 09:53:41,0.01,0.02,0.00,24.34,27.57,30.11,4.72,26.18,1017.12,2035.00,3453.00,3320.01,3605.60,350.04,346.33,6.95,0000 0000 0000 0000 000000
2015-05-25 09:58:42,0.01,0.02,0.00,24.34,27.57,30.12,4.66,26.30,1017.13,2034.99,3452.96,3320.00,3605.15,349.26,345.65,6.98,0000 0000 0000 0000 000000
2015-05-25 10:03:43,-0.00,0.02,0.00,24.34,27.57,30.13,4.78,26.20,1017.12,2034.99,3452.99,3320.00,3605.10,350.26,346.36,7.01,0000 0000 0000 0000 000000
2015-05-25 10:08:44,-0.00,0.02,0.00,24.33,27.59,30.14,4.68,26.19,1017.11,2034.98,3452.99,3320.00,3605.04,349.73,346.03,7.04,0000 0000 0000 0000 000000
2015-05-25 10:13:46,0.00,0.02,0.00,24.32,27.60,30.15,4.74,26.27,1017.12,2034.98,3452.92,3320.00,3605.03,349.70,346.12,7.07,0000 0000 0000 0000 000000
2015-05-25 10:18:47,0.00,0.02,0.00,24.32,27.60,30.15,4.71,26.21,1017.11,2034.98,3452.90,3319.99,3605.02,349.62,345.85,7.10,0000 0000 0000 0000 000000
2015-05-25 10:23:48,0.00,0.02,0.00,24.32,27.60,30.15,4.77,26.18,1017.11,2034.98,3452.86,3319.99,3605.01,350.47,346.75,7.13,0000 0000 0000 0000 000000
2015-05-25 10:28:49,0.01,0.02,0.00,24.32,27.60,30.17,4.69,26.14,1017.11,2034.98,3452.65,3319.99,3605.00,349.72,346.02,7.16,0000 0000 0000 0000 000000
2015-05-25 10:33:50,0.01,0.02,0.00,24.32,27.60,30.17,4.75,26.22,1017.12,2034.97,3452.31,3319.99,3605.00,350.05,346.30,7.18,0000 0000 0000 0000 000000
2015-05-25 10:38:51,0.00,0.02,0.00,24.30,27.62,30.18,4.79,26.20,1017.11,2034.97,3452.22,3319.97,3605.00,350.04,346.35,7.21,0000 0000 0000 0000 000000
2015-05-25 10:43:52,0.00,0.02,0.00,24.30,27.62,30.18,4.69,26.15,1017.11,2034.96,3452.09,3319.92,3605.00,349.84,346.22,7.24,0000 0000 0000 0000 000000
2015-05-25 10:48:53,0.01,0.02,0.00,24.30,27.62,30.19,4.73,26.14,1017.11,2034.95,3452.00,3319.73,3604.97,350.09,346.37,7.27,0000 0000 0000 0000 000000
2015-05-25 10:53:55,0.01,0.02,0.00,24.29,27.62,30.20,4.68,26.15,1017.11,2034.91,3452.00,3319.56,3604.96,349.64,346.11,7.30,0000 0000 0000 0000 000000
2015-05-25 10:58:56,0.00,0.02,0.00,24.29,27.62,30.19,4.75,26.24,1017.11,2034.87,3452.00,3319.21,3604.90,350.25,346.59,7.33,0000 0000 0000 0000 000000
2015-05-25 11:03:57,0.01,0.02,0.00,24.27,27.62,30.20,4.75,26.15,1017.11,2034.95,3451.99,3319.36,3604.96,350.01,346.30,7.36,0000 0000 0000 0000 000000
2015-05-25 11:08:58,-0.00,0.02,0.00,24.26,27.62,30.21,4.80,26.11,1017.11,2034.96,3451.99,3319.31,3604.96,350.33,346.58,7.39,0000 0000 0000 0000 000000
2015-05-25 11:13:59,0.06,0.03,0.00,24.25,27.63,30.21,4.73,26.13,1017.11,2034.97,3451.48,3319.04,3604.30,350.14,346.45,7.42,0000 0000 0000 0000 000000
2015-05-25 11:19:00,0.04,0.03,0.00,24.24,27.64,30.21,4.67,26.16,1017.12,2034.95,3450.52,3318.54,3603.98,349.75,346.29,7.45,0000 0000 0000 0000 000000
2015-05-25 11:24:01,0.03,0.03,0.00,24.23,27.64,30.24,4.71,26.18,1017.11,2034.94,3450.03,3318.07,3603.58,350.18,346.56,7.48,0000 0000 0000 0000 000000
2015-05-25 11:29:02,0.01,0.03,0.00,24.22,27.65,30.24,4.75,26.26,1017.12,2034.95,3450.01,3318.03,3603.32,350.23,346.50,7.51,0000 0000 0000 0000 000000
2015-05-25 11:34:04,0.00,0.03,0.00,24.22,27.65,30.25,4.71,26.16,1017.11,2034.95,3450.00,3318.01,3603.09,350.06,346.40,7.54,0000 0000 0000 0000 000000
2015-05-25 11:39:04,0.00,0.03,0.00,24.20,27.65,30.24,4.76,26.14,1017.11,2034.95,3450.00,3318.00,3603.04,350.26,346.73,7.57,0000 0000 0000 0000 000000
2015-05-25 11:44:06,0.00,0.03,0.00,24.21,27.65,30.23,4.76,26.18,1017.11,2034.95,3450.00,3318.01,3603.02,350.09,346.48,7.59,0000 0000 0000 0000 000000
2015-05-25 11:49:07,-0.01,0.03,0.00,24.20,27.65,30.26,4.76,26.15,1017.10,2034.94,3450.00,3318.01,3603.03,350.22,346.71,7.62,0000 0000 0000 0000 000000
2015-05-25 11:54:08,0.01,0.03,0.00,24.20,27.65,30.23,4.71,26.16,1017.06,2034.95,3449.98,3318.00,3603.01,349.76,346.24,7.65,0000 0000 0000 0000 000000
2015-05-25 11:59:09,-0.00,0.03,0.00,24.18,27.65,30.25,4.78,26.31,1016.99,2034.92,3449.91,3318.00,3603.00,349.97,346.29,7.68,0000 0000 0000 0000 000000
2015-05-25 12:04:10,-0.01,0.03,0.00,24.17,27.65,30.24,4.72,26.17,1016.90,2034.82,3449.83,3317.98,3603.00,349.75,346.24,7.71,0000 0000 0000 0000 000000
2015-05-25 12:09:12,0.00,0.03,0.00,24.16,27.65,30.25,4.73,26.21,1016.67,2034.82,3449.74,3317.98,3603.00,349.42,345.69,7.74,0000 0000 0000 0000 000000
2015-05-25 12:14:13,-0.00,0.03,0.00,24.15,27.65,30.26,4.78,26.18,1016.63,2034.79,3449.53,3317.98,3602.99,350.00,346.04,7.77,0000 0000 0000 0000 000000
2015-05-25 12:19:14,-0.02,0.03,0.00,24.14,27.65,30.27,4.72,26.18,1016.65,2034.64,3449.13,3317.97,3602.98,349.79,346.25,7.80,0000 0000 0000 0000 000000
2015-05-25 12:24:15,0.03,0.03,0.00,24.12,27.65,30.29,4.74,26.16,1016.68,2034.80,3449.13,3317.98,3602.98,349.96,346.64,7.83,0000 0000 0000 0000 000000
2015-05-25 12:29:16,0.00,0.03,0.00,24.11,27.64,30.31,4.78,26.16,1016.70,2034.82,3449.10,3317.97,3602.98,350.28,346.82,7.86,0000 0000 0000 0000 000000
2015-05-25 12:34:18,-0.00,0.03,0.00,24.09,27.64,30.31,4.75,26.17,1016.65,2034.80,3449.05,3317.97,3602.98,350.00,346.36,7.89,0000 0000 0000 0000 000000
2015-05-25 12:39:19,0.00,0.03,0.00,24.09,27.63,30.31,4.75,26.11,1016.64,2034.79,3449.02,3317.97,3602.96,349.69,346.08,7.92,0000 0000 0000 0000 000000
2015-05-25 12:44:20,0.00,0.03,0.00,24.08,27.62,30.31,4.80,26.23,1016.63,2034.80,3449.03,3317.95,3602.96,350.46,346.79,7.95,0000 0000 0000 0000 000000
2015-05-25 12:49:22,-0.01,0.03,0.00,24.06,27.62,30.31,4.72,26.15,1016.63,2034.78,3449.01,3317.95,3602.91,349.97,346.55,7.98,0000 0000 0000 0000 000000
2015-05-25 12:54:23,0.01,0.03,0.00,24.05,27.62,30.32,4.77,26.14,1016.65,2034.85,3449.01,3317.98,3602.95,349.96,346.40,8.00,0000 0000 0000 0000 000000
2015-05-25 12:59:24,-0.00,0.03,0.00,24.04,27.62,30.34,4.79,26.34,1016.63,2034.80,3449.00,3317.90,3602.94,349.96,346.35,8.03,0000 0000 0000 0000 000000
2015-05-25 13:04:25,0.01,0.03,0.00,24.02,27.62,30.35,4.71,26.17,1016.63,2034.92,3449.00,3317.97,3602.97,349.59,346.33,8.06,0000 0000 0000 0000 000000